Location: Bermeries
(50.2863°N, 3.7551°E)
Time: 14:18:22
(UTC+00:00)

Cosmos 1782 Rocket - Pass Details

Date: 23 May 2024
Orbit: 602 x 629 km, 82.5° (Epoch: 18 June)

Event Time Altitude Azimuth Distance (km) Brightness Sun altitude
Rises 01:49:59 0° 346° (NNW) 2,902 7.7 -13.6°
Reaches altitude 10° 01:52:15 10° 343° (NNW) 1,987 6.8 -13.4°
Maximum altitude 01:56:34 59° 264° (W) 712 3.6 -13.1°
Enters shadow 01:59:46 17° 189° (S) 1,543 5.0 -12.8°
